Flag Weather past 2 weeks in Bielsko-Biała, Poland

Now
40 °F

Partly sunny.


Feels Like: 40 °F
Forecast: 29 / 40 °F
Wind: 2 mph from Southeast

Location: Katowice

Current Time: Nov 24, 2014 at 1:54:41 PM

Latest Report: Nov 24, 2014 at 1:00 PM


Visibility: 6 mi

Pressure: 30.30 "Hg

Humidity: 72%

Dew point: 32 °F

Location of Bielsko-BiałaLocation

Historic Weather in Bielsko-Biała — Graph

°F

Bielsko-Biała temperature yesterday

Maximum temperature yesterday: 42 °F (at 2:00 PM)
Minimum temperature yesterday: 32 °F (at 11:00 PM)
Average temperature yesterday: 38 °F

Past Weeks' High & Low Weather Summary

 TemperatureHumidityPressure
High65 °F (Nov 11, 2:00 PM)100% (Nov 10, 4:00 AM)30.47 "Hg (Nov 10, 4:00 AM)
Low31 °F (Nov 24, 5:00 AM)57% (Nov 11, 12:00 PM)29.77 "Hg (Nov 16, 12:00 PM)
Average45 °F89%30.07 "Hg
* Reported Nov 9 12:00 Noon — Nov 24 12:00 Noon, Bielsko-Biała, Weather by CustomWeather, © 2014

Note: Actual official high and low records may vary slightly from our data, if they occured in-between our weather recording intervals... More about our weather records

Advertising

Bielsko-Biała weather history for previous 24 hours

 ConditionsComfort  
Time TempWeatherWind HumidityBarometerVisibility
12:00 PM
Nov 24
39 °FPartly sunny.5 mph74%30.32 "Hg6 mi
11:00 AM37 °FPartly sunny.5 mph80%30.34 "Hg6 mi
10:00 AM34 °FFog.3 mph87%30.37 "Hg5 mi
9:00 AM32 °FFog.5 mph90%30.37 "Hg5 mi
8:00 AM31 °FFog.3 mph91%30.38 "Hg5 mi
7:00 AM32 °FFog.5 mph93%30.38 "Hg5 mi
6:00 AM32 °FFog.5 mph93%30.39 "Hg4 mi
5:00 AM31 °FFog.3 mph93%30.40 "Hg4 mi
4:00 AM31 °FFog.2 mph92%30.40 "Hg4 mi
3:00 AM32 °FFog.3 mph93%30.41 "Hg5 mi
2:00 AM32 °FFog.5 mph93%30.42 "Hg3 mi
1:00 AM32 °FFog.3 mph95%30.43 "Hg2 mi
12:00 AM32 °FFog.2 mph94%30.44 "Hg2 mi
11:00 PM
Nov 23
32 °FFog.3 mph91%30.44 "Hg4 mi
9:00 PM37 °FOvercast.5 mph82%30.44 "Hg6 mi
8:00 PM38 °FOvercast.5 mph79%30.44 "Hg6 mi
7:00 PM38 °FOvercast.3 mph81%30.44 "Hg6 mi
6:00 PM39 °FPassing clouds.5 mph75%30.45 "Hg6 mi
5:00 PM38 °FOvercast.5 mph80%30.44 "Hg6 mi
4:00 PM39 °FPassing clouds.5 mph78%30.43 "Hg6 mi
3:00 PM41 °FPassing clouds.5 mph75%30.43 "Hg6 mi
2:00 PM42 °FPartly sunny.5 mph72%30.43 "Hg6 mi
1:00 PM42 °FOvercast.5 mph72%30.45 "Hg6 mi
Weather by CustomWeather, © 2014

See weather overviewHow to use our weather pages